Showing default

OPS 1509 (TRANSIT 10), 1864

Orbit data source: Space-Track

OPS 1509 (TRANSIT 10), 1864 is a payload satellite owned by USN BuWeps (US) in LEO that was launched on Wed, 22 Dec 1965 UTC via an SCOUT A launch vehicle from the Air Force Western Test Range (AFWTR). Payload-class satellites include a variety of spacecraft equipped with specific instruments for various scientific and technological missions. These include communications satellites like Starlink; space stations such as the ISS; scientific satellites like the Hubble; Earth observation satellites from companies like Planet Labs, Umbra, and HawkEye 360; GPS; miniature CubeSats for education and research; and military/defense satellites.

Loading next visibility...
Identifier
1864, 1965-109A
Orbit
LEO
Country
Flag of USUS
Related business
Manufacturer
APL
Mission
Spacecraft
Bus & Motor
TRANSIT 5, Unknown motor
Mass
51 kg wet, 51 kg dry
Launch date (UTC)
1965-12-22 (60 years ago)
Launch vehicle
SCOUT A
Launch site
Air Force Western Test Range (AFWTR)
Object type
Payload
Rocket body
Debris
Shape & HBR
Unknown
Radar Cross Section
Large (>1 m²)

Expand to show TLE details & history
Last TLE update: 8 hours ago

TLE from 8 hours ago
0 OPS 1509 (TRANSIT 10)
1  1864U 65109A   26071.99809682  .00000247  00000-0  21782-3 0  9993
2  1864  89.0632 244.7998 0110944 145.4862 215.3574 13.79033872 22847
Epoch: 2026-03-12T23:57Z
TLE epoch observation values (Epoch: 2026-03-12T23:57:15.565Z)
Latitude
-0.00004°
Longitude
74.845°
Altitude
1,037.086 km
Speed
7.3 km/s
True Right ascension
16h 19m 11s
True Declination
0° 00' 00"
Sunlit
Object was in daylight at epoch
Visualization orbit readout
Latitude
Unknown
Longitude
Unknown
Altitude
Unknown
Speed
Unknown
Apparent Right ascension
Unknown
Apparent Declination
Unknown
Sunlit
N/A
Visualization observer readout
Local Sidereal Time
12:43:58
Azimuth
Unknown
Elevation
Unknown
Doppler factor
Unknown
Orbital elements
Apogee altitude
1,045.785 km
Perigee altitude
882.865 km
Semi-major axis
7,342.462 km
Eccentricity
0.01109
Inclination
89.0632°
RAAN
244.7998°
Arg. of periapsis
145.4862°
True anomaly
214.62997°
Mean anomaly
215.3574°
Eccentric anomaly
214.99286°
Mean motion
3.44969 °/min
Orbital period
104.36 mins
BSTAR
0.00021782
Loading maneuver chart data...
Computing Atmospheric mass density...
Loading historical data...
Loading historical data...
Loading historical data...
Loading historical data...
Loading historical data...
Loading historical data...
Loading historical data...

Documentation

Showing up to 5 results
|